| time (UTC) | temp C | wind direction | speed KPH | gust KPH | rain 1hr cm | rain 24hr cm | rain mn cm | humidity % | barometer mb |
| 20260906141030 | 27 | 195 | 3.2 | 9.7 | 0.00 | 0.00 | 0.00 | 68 | 1013.0 |
| 20260906140351 | 27 | 237 | 3.2 | 4.8 | 0.00 | 0.00 | 0.00 | 68 | 1013.1 |
| 20260906135924 | 27 | 320 | 1.6 | 6.4 | 0.00 | 0.00 | 0.00 | 69 | 1013.1 |
| 20260906135031 | 27 | 169 | 4.8 | 8.0 | 0.00 | 0.00 | 0.00 | 71 | 1013.0 |
| 20260906134350 | 26 | 126 | 4.8 | 9.7 | 0.00 | 0.00 | 0.00 | 72 | 1013.1 |
| 20260906133921 | 26 | 145 | 8.0 | 9.7 | 0.00 | 0.00 | 0.00 | 75 | 1013.1 |
| 20260906133030 | 26 | 128 | 6.4 | 9.7 | 0.00 | 0.00 | 0.00 | 76 | 1013.4 |
| 20260906132602 | 25 | 124 | 6.4 | 8.0 | 0.00 | 0.00 | 0.00 | 77 | 1013.5 |
| 20260906131710 | 25 | 114 | 4.8 | 8.0 | 0.00 | 0.00 | 0.00 | 78 | 1013.6 |
| 20260906131030 | 25 | 94 | 3.2 | 9.7 | 0.00 | 0.00 | 0.00 | 80 | 1013.6 |
| 20260906130350 | 25 | 129 | 3.2 | 11.3 | 0.00 | 0.00 | 0.00 | 80 | 1013.6 |
| 20260906125710 | 25 | 132 | 4.8 | 11.3 | 0.00 | 0.00 | 0.00 | 82 | 1013.7 |
| 20260906125240 | 25 | 109 | 3.2 | 6.4 | 0.00 | 0.00 | 0.00 | 81 | 1013.7 |
| 20260906124350 | 25 | 90 | 1.6 | 3.2 | 0.00 | 0.00 | 0.00 | 84 | 1013.6 |
| 20260906123710 | 24 | 263 | 3.2 | 4.8 | 0.00 | 0.00 | 0.00 | 85 | 1013.7 |
| 20260906123030 | 24 | 116 | 1.6 | 4.8 | 0.00 | 0.00 | 0.00 | 86 | 1013.7 |
| 20260906122351 | 23 | 156 | 3.2 | 4.8 | 0.00 | 0.00 | 0.00 | 88 | 1013.6 |
| 20260906121711 | 23 | 109 | 1.6 | 3.2 | 0.00 | 0.00 | 0.00 | 88 | 1013.7 |
| 20260906121030 | 23 | 230 | 1.6 | 3.2 | 0.00 | 0.00 | 0.00 | 87 | 1013.7 |
| 20260906120350 | 23 | 351 | 1.6 | 3.2 | 0.00 | 0.00 | 0.00 | 89 | 1013.7 |
| 20260906115710 | 23 | 164 | 3.2 | 3.2 | 0.00 | 0.00 | 0.00 | 90 | 1013.6 |
| 20260906115030 | 22 | 332 | 1.6 | 3.2 | 0.00 | 0.00 | 0.00 | 92 | 1013.7 |
| 20260906114350 | 22 | 65 | 1.6 | 3.2 | 0.00 | 0.00 | 0.00 | 91 | 1013.8 |
| 20260906113710 | 22 | 349 | 1.6 | 3.2 | 0.00 | 0.00 | 0.00 | 93 | 1013.8 |
| 20260906113030 | 22 | 341 | 1.6 | 3.2 | 0.00 | 0.00 | 0.00 | 93 | 1013.7 |
| 20260906112350 | 22 | 105 | 1.6 | 6.4 | 0.00 | 0.00 | 0.00 | 94 | 1013.6 |
| 20260906111924 | 22 | 76 | 3.2 | 8.0 | 0.00 | 0.00 | 0.00 | 95 | 1013.5 |
| 20260906111030 | 22 | 93 | 4.8 | 8.0 | 0.00 | 0.00 | 0.00 | 94 | 1013.4 |
| 20260906110351 | 22 | 109 | 4.8 | 6.4 | 0.00 | 0.00 | 0.00 | 93 | 1013.2 |
| 20260906105921 | 22 | 162 | 1.6 | 4.8 | 0.00 | 0.00 | 0.00 | 91 | 1013.2 |
| 20260906105030 | 22 | 243 | 1.6 | 9.7 | 0.00 | 0.00 | 0.00 | 90 | 1013.2 |
| 20260906104350 | 22 | 193 | 6.4 | 9.7 | 0.00 | 0.00 | 0.00 | 93 | 1013.2 |
| 20260906103710 | 22 | 260 | 3.2 | 4.8 | 0.00 | 0.00 | 0.00 | 90 | 1013.4 |
| 20260906103243 | 22 | 194 | 3.2 | 6.4 | 0.00 | 0.00 | 0.00 | 91 | 1012.9 |
| 20260906102350 | 22 | 174 | 3.2 | 9.7 | 0.00 | 0.00 | 0.00 | 92 | 1012.8 |
| 20260906101710 | 22 | 335 | 6.4 | 9.7 | 0.00 | 0.00 | 0.00 | 91 | 1013.0 |
| 20260906101030 | 22 | 117 | 3.2 | 9.7 | 0.00 | 0.00 | 0.00 | 91 | 1012.5 |
| 20260906100350 | 22 | 27 | 3.2 | 4.8 | 0.00 | 0.00 | 0.00 | 92 | 1012.5 |
| 20260906095710 | 22 | 70 | 1.6 | 6.4 | 0.00 | 0.00 | 0.00 | 93 | 1012.3 |
| 20260906095031 | 22 | 48 | 3.2 | 6.4 | 0.00 | 0.00 | 0.00 | 91 | 1012.3 |
| 20260906094350 | 22 | 224 | 1.6 | 4.8 | 0.00 | 0.00 | 0.00 | 91 | 1012.4 |
| 20260906093923 | 22 | 1 | 3.2 | 4.8 | 0.00 | 0.00 | 0.00 | 90 | 1012.2 |
| 20260906093244 | 22 | 191 | 3.2 | 4.8 | 0.00 | 0.00 | 0.00 | 89 | 1012.4 |
| 20260906092351 | 22 | 328 | 3.2 | 3.2 | 0.00 | 0.00 | 0.00 | 90 | 1012.5 |
| 20260906091710 | 22 | 249 | 3.2 | 4.8 | 0.00 | 0.00 | 0.00 | 92 | 1012.6 |
| 20260906091030 | 22 | 260 | 3.2 | 6.4 | 0.00 | 0.00 | 0.00 | 93 | 1012.5 |
| 20260906090350 | 22 | 316 | 4.8 | 6.4 | 0.00 | 0.00 | 0.00 | 90 | 1012.6 |
| 20260906085710 | 22 | 318 | 3.2 | 4.8 | 0.00 | 0.00 | 0.00 | 90 | 1012.8 |
| 20260906084350 | 22 | 261 | 4.8 | 12.9 | 0.00 | 0.00 | 0.00 | 86 | 1012.4 |
| 20260906083710 | 23 | 223 | 6.4 | 16.1 | 0.00 | 0.00 | 0.00 | 83 | 1012.0 |
| 20260906083030 | 23 | 193 | 12.9 | 16.1 | 0.00 | 0.00 | 0.00 | 81 | 1012.4 |
| 20260906082350 | 23 | 176 | 6.4 | 14.5 | 0.00 | 0.00 | 0.00 | 80 | 1012.6 |
| 20260906081710 | 23 | 121 | 1.6 | 11.3 | 0.00 | 0.00 | 0.00 | 83 | 1012.8 |
| 20260906081030 | 23 | 123 | 6.4 | 11.3 | 0.00 | 0.00 | 0.00 | 85 | 1012.9 |
| 20260906080350 | 23 | 160 | 6.4 | 22.5 | 0.00 | 0.00 | 0.00 | 85 | 1013.1 |
| 20260906075923 | 23 | 99 | 12.9 | 22.5 | 0.00 | 0.00 | 0.00 | 86 | 1013.2 |
| 20260906075031 | 23 | 56 | 4.8 | 16.1 | 0.00 | 0.00 | 0.00 | 90 | 1013.3 |
| 20260906074350 | 23 | 48 | 4.8 | 19.3 | 0.00 | 0.00 | 0.00 | 89 | 1013.6 |
| 20260906073710 | 23 | 32 | 11.3 | 25.7 | 0.00 | 0.00 | 0.00 | 88 | 1013.5 |
| 20260906073030 | 24 | 24 | 12.9 | 45.1 | 0.00 | 0.00 | 0.00 | 86 | 1013.6 |
| 20260906072350 | 25 | 43 | 14.5 | 30.6 | 0.00 | 0.00 | 0.00 | 80 | 1013.6 |
| 20260906071711 | 25 | 50 | 12.9 | 30.6 | 0.00 | 0.00 | 0.00 | 80 | 1013.3 |
| 20260906071242 | 25 | 10 | 12.9 | 24.1 | 0.00 | 0.00 | 0.00 | 82 | 1013.5 |
| 20260906070603 | 25 | 80 | 4.8 | 12.9 | 0.00 | 0.00 | 0.00 | 81 | 1012.8 |
| 20260906065711 | 25 | 88 | 6.4 | 9.7 | 0.00 | 0.00 | 0.00 | 79 | 1013.0 |
| 20260906065031 | 25 | 51 | 3.2 | 16.1 | 0.00 | 0.00 | 0.00 | 76 | 1013.0 |
| 20260906064350 | 25 | 8 | 6.4 | 16.1 | 0.00 | 0.00 | 0.00 | 77 | 1013.0 |
| 20260906063710 | 25 | 32 | 6.4 | 16.1 | 0.00 | 0.00 | 0.00 | 80 | 1013.1 |
| 20260906063030 | 25 | 41 | 9.7 | 17.7 | 0.00 | 0.00 | 0.00 | 83 | 1012.9 |
| 20260906062350 | 25 | 125 | 8.0 | 14.5 | 0.00 | 0.00 | 0.00 | 83 | 1012.7 |
| 20260906061710 | 26 | 143 | 6.4 | 12.9 | 0.00 | 0.00 | 0.00 | 79 | 1012.6 |
| 20260906061030 | 26 | 113 | 8.0 | 14.5 | 0.00 | 0.00 | 0.00 | 83 | 1012.8 |
| 20260906060603 | 25 | 173 | 9.7 | 14.5 | 0.00 | 0.00 | 0.00 | 88 | 1013.0 |
| 20260906055711 | 25 | 219 | 4.8 | 8.0 | 0.00 | 0.00 | 0.00 | 92 | 1012.9 |
| 20260906055239 | 25 | 290 | 3.2 | 8.0 | 0.00 | 0.00 | 0.00 | 91 | 1013.0 |
| 20260906054350 | 25 | 51 | 3.2 | 4.8 | 0.00 | 0.00 | 0.00 | 92 | 1013.1 |
| 20260906053710 | 25 | 301 | 1.6 | 19.3 | 0.00 | 0.00 | 0.00 | 91 | 1012.8 |
| 20260906053030 | 25 | 28 | 8.0 | 19.3 | 0.00 | 0.00 | 0.00 | 94 | 1013.0 |
| 20260906052350 | 25 | 32 | 6.4 | 11.3 | 0.00 | 0.00 | 0.00 | 92 | 1012.8 |
| 20260906051710 | 25 | 205 | 3.2 | 6.4 | 0.00 | 0.00 | 0.00 | 92 | 1012.6 |
| 20260906051031 | 25 | 221 | 4.8 | 8.0 | 0.00 | 0.00 | 0.00 | 93 | 1012.5 |
| 20260906050350 | 25 | 228 | 4.8 | 9.7 | 0.00 | 0.00 | 0.00 | 96 | 1012.4 |
| 20260906045710 | 24 | 222 | 4.8 | 8.0 | 0.00 | 0.00 | 0.61 | 95 | 1012.4 |
| 20260906045030 | 25 | 213 | 3.2 | 3.2 | 0.00 | 0.00 | 0.61 | 92 | 1012.5 |
| 20260906044350 | 25 | 45 | 1.6 | 4.8 | 0.00 | 0.00 | 0.61 | 93 | 1012.5 |
| 20260906043710 | 24 | 26 | 1.6 | 3.2 | 0.00 | 0.00 | 0.61 | 95 | 1012.6 |
| 20260906043242 | 24 | 5 | 1.6 | 4.8 | 0.00 | 0.00 | 0.61 | 98 | 1012.7 |
| 20260906042350 | 23 | 332 | 1.6 | 4.8 | 0.00 | 0.00 | 0.61 | 98 | 1012.7 |
| 20260906041710 | 24 | 325 | 1.6 | 3.2 | 0.00 | 0.00 | 0.61 | 97 | 1012.7 |
| 20260906041030 | 24 | 317 | 1.6 | 3.2 | 0.00 | 0.00 | 0.61 | 95 | 1012.7 |
| 20260906040350 | 25 | 334 | 1.6 | 1.6 | 0.00 | 0.00 | 0.61 | 92 | 1012.8 |
| 20260906035710 | 25 | 217 | 1.6 | 1.6 | 0.00 | 0.00 | 0.61 | 90 | 1012.8 |
| 20260906035241 | 25 | 320 | 1.6 | 3.2 | 0.00 | 0.00 | 0.61 | 92 | 1012.9 |
| 20260906034350 | 25 | 247 | 1.6 | 3.2 | 0.00 | 0.00 | 0.61 | 92 | 1012.8 |
| 20260906033712 | 25 | 201 | 1.6 | 3.2 | 0.00 | 0.00 | 0.61 | 92 | 1012.8 |
| 20260906032351 | 25 | 38 | 1.6 | 3.2 | 0.00 | 0.00 | 0.61 | 94 | 1012.7 |
| 20260906031711 | 24 | 233 | 1.6 | 4.8 | 0.00 | 0.00 | 0.61 | 97 | 1012.5 |
| 20260906031031 | 23 | 277 | 1.6 | 4.8 | 0.00 | 0.00 | 0.61 | 99 | 1012.5 |
| 20260906030350 | 23 | 292 | 1.6 | 3.2 | 0.00 | 0.00 | 0.61 | 100 | 1012.6 |
| 20260906025710 | 23 | 289 | 1.6 | 4.8 | 0.00 | 0.00 | 0.61 | 100 | 1012.6 |
| 20260906025030 | 23 | 295 | 3.2 | 4.8 | 0.00 | 0.00 | 0.61 | 100 | 1012.7 |
| 20260906024350 | 23 | 348 | 3.2 | 6.4 | 0.00 | 0.00 | 0.61 | 100 | 1012.5 |
| 20260906023711 | 23 | 7 | 3.2 | 6.4 | 0.00 | 0.00 | 0.61 | 100 | 1012.4 |
| 20260906023243 | 23 | 329 | 1.6 | 4.8 | 0.00 | 0.00 | 0.61 | 100 | 1012.2 |
| 20260906022351 | 23 | 246 | 3.2 | 4.8 | 0.00 | 0.00 | 0.61 | 100 | 1012.2 |
| 20260906021710 | 23 | 287 | 3.2 | 3.2 | 0.00 | 0.00 | 0.61 | 100 | 1012.0 |
| 20260906021030 | 23 | 147 | 1.6 | 4.8 | 0.00 | 0.00 | 0.61 | 100 | 1012.0 |
| 20260906020350 | 23 | 172 | 3.2 | 4.8 | 0.00 | 0.00 | 0.61 | 100 | 1012.0 |
| 20260906015710 | 23 | 194 | 1.6 | 3.2 | 0.00 | 0.00 | 0.61 | 100 | 1011.9 |
| 20260906015242 | 23 | 0 | 0.0 | 4.8 | 0.00 | 0.00 | 0.61 | 100 | 1011.9 |
| 20260906014350 | 23 | 14 | 1.6 | 4.8 | 0.00 | 0.00 | 0.61 | 100 | 1011.7 |
| 20260906013923 | 23 | 294 | 3.2 | 4.8 | 0.00 | 0.00 | 0.61 | 100 | 1011.6 |
| 20260906013030 | 23 | 296 | 1.6 | 4.8 | 0.00 | 0.00 | 0.61 | 100 | 1011.6 |
| 20260906012350 | 23 | 316 | 3.2 | 6.4 | 0.00 | 0.00 | 0.61 | 100 | 1011.5 |
| 20260906011710 | 23 | 295 | 3.2 | 6.4 | 0.00 | 0.00 | 0.61 | 100 | 1011.4 |
| 20260906011031 | 23 | 325 | 4.8 | 6.4 | 0.00 | 0.00 | 0.61 | 100 | 1011.4 |
| 20260906010350 | 23 | 242 | 1.6 | 11.3 | 0.00 | 0.00 | 0.61 | 100 | 1011.3 |
| 20260906005030 | 23 | 196 | 1.6 | 14.5 | 0.00 | 0.00 | 0.61 | 100 | 1011.1 |
| 20260906003710 | 23 | 23 | 3.2 | 8.0 | 0.00 | 0.00 | 0.61 | 100 | 1011.1 |
| 20260906003030 | 23 | 256 | 4.8 | 9.7 | 0.00 | 0.00 | 0.61 | 100 | 1011.1 |
| 20260906002350 | 23 | 233 | 3.2 | 11.3 | 0.00 | 0.00 | 0.61 | 100 | 1011.2 |
| 20260906001921 | 23 | 234 | 3.2 | 8.0 | 0.00 | 0.00 | 0.61 | 99 | 1011.5 |
| 20260906001030 | 23 | 121 | 3.2 | 24.1 | 0.00 | 0.00 | 0.61 | 97 | 1011.7 |
| 20260906000350 | 24 | 242 | 8.0 | 61.2 | 0.00 | 0.00 | 0.58 | 79 | 1011.9 |
| 20260905235710 | 28 | 301 | 20.9 | 62.8 | 0.00 | 0.00 | 0.43 | 61 | 1012.2 |
| 20260905235030 | 25 | 341 | 33.8 | 62.8 | 0.00 | 0.00 | 0.18 | 83 | 1012.1 |
| 20260905234350 | 30 | 343 | 27.4 | 53.1 | 0.00 | 0.00 | 0.00 | 60 | 1011.7 |
| 20260905233710 | 31 | 58 | 3.2 | 6.4 | 0.00 | 0.00 | 0.00 | 55 | 1011.3 |
| 20260905233031 | 31 | 114 | 3.2 | 8.0 | 0.00 | 0.00 | 0.00 | 54 | 1011.2 |
| 20260905232350 | 32 | 111 | 6.4 | 9.7 | 0.00 | 0.00 | 0.00 | 53 | 1011.1 |
| 20260905231921 | 32 | 153 | 6.4 | 12.9 | 0.00 | 0.00 | 0.00 | 50 | 1010.9 |
| 20260905231030 | 32 | 120 | 4.8 | 12.9 | 0.00 | 0.00 | 0.00 | 49 | 1011.0 |
| 20260905230350 | 32 | 157 | 6.4 | 14.5 | 0.00 | 0.00 | 0.00 | 49 | 1010.9 |
| 20260905225710 | 33 | 162 | 8.0 | 16.1 | 0.00 | 0.00 | 0.00 | 49 | 1010.8 |
| 20260905225244 | 33 | 137 | 11.3 | 20.9 | 0.00 | 0.00 | 0.00 | 49 | 1010.8 |
| 20260905224351 | 33 | 139 | 16.1 | 27.4 | 0.00 | 0.00 | 0.00 | 48 | 1010.8 |
| 20260905223711 | 35 | 141 | 19.3 | 27.4 | 0.00 | 0.00 | 0.00 | 45 | 1010.8 |
| 20260905223030 | 36 | 71 | 6.4 | 11.3 | 0.00 | 0.00 | 0.00 | 42 | 1010.7 |
| 20260905221710 | 37 | 17 | 3.2 | 14.5 | 0.00 | 0.00 | 0.00 | 41 | 1010.7 |
| 20260905221030 | 36 | 332 | 8.0 | 16.1 | 0.00 | 0.00 | 0.00 | 39 | 1010.7 |
| 20260905220603 | 36 | 327 | 8.0 | 19.3 | 0.00 | 0.00 | 0.00 | 39 | 1010.8 |
| 20260905215710 | 36 | 359 | 11.3 | 19.3 | 0.00 | 0.00 | 0.00 | 41 | 1010.7 |
| 20260905215031 | 36 | 307 | 6.4 | 16.1 | 0.00 | 0.00 | 0.00 | 39 | 1010.8 |
| 20260905214350 | 37 | 255 | 3.2 | 9.7 | 0.00 | 0.00 | 0.00 | 35 | 1010.8 |
| 20260905213710 | 37 | 307 | 4.8 | 11.3 | 0.00 | 0.00 | 0.00 | 37 | 1010.8 |
| 20260905213031 | 37 | 30 | 3.2 | 14.5 | 0.00 | 0.00 | 0.00 | 39 | 1010.9 |
| 20260905212350 | 36 | 358 | 8.0 | 14.5 | 0.00 | 0.00 | 0.00 | 38 | 1010.8 |
| 20260905211710 | 37 | 298 | 8.0 | 11.3 | 0.00 | 0.00 | 0.00 | 37 | 1010.8 |
| 20260905211243 | 38 | 28 | 3.2 | 12.9 | 0.00 | 0.00 | 0.00 | 36 | 1010.8 |
| 20260905210350 | 37 | 291 | 8.0 | 12.9 | 0.00 | 0.00 | 0.00 | 36 | 1010.7 |
| 20260905205710 | 37 | 315 | 8.0 | 11.3 | 0.00 | 0.00 | 0.00 | 35 | 1010.8 |
| 20260905205031 | 37 | 322 | 4.8 | 14.5 | 0.00 | 0.00 | 0.00 | 36 | 1011.0 |
| 20260905204350 | 36 | 310 | 6.4 | 14.5 | 0.00 | 0.00 | 0.00 | 38 | 1011.2 |
| 20260905203711 | 37 | 303 | 6.4 | 14.5 | 0.00 | 0.00 | 0.00 | 38 | 1011.1 |
| 20260905203030 | 36 | 323 | 8.0 | 14.5 | 0.00 | 0.00 | 0.00 | 39 | 1011.2 |
| 20260905202350 | 37 | 321 | 8.0 | 14.5 | 0.00 | 0.00 | 0.00 | 36 | 1011.3 |
| 20260905201710 | 36 | 138 | 6.4 | 14.5 | 0.00 | 0.00 | 0.00 | 38 | 1011.3 |
| 20260905201030 | 36 | 9 | 6.4 | 14.5 | 0.00 | 0.00 | 0.00 | 40 | 1011.6 |
| 20260905200350 | 36 | 353 | 8.0 | 20.9 | 0.00 | 0.00 | 0.00 | 40 | 1011.7 |
| 20260905195920 | 36 | 5 | 9.7 | 20.9 | 0.00 | 0.00 | 0.00 | 40 | 1011.9 |
| 20260905195030 | 36 | 48 | 3.2 | 9.7 | 0.00 | 0.00 | 0.00 | 42 | 1011.9 |
| 20260905194351 | 36 | 277 | 3.2 | 12.9 | 0.00 | 0.00 | 0.00 | 40 | 1012.1 |
| 20260905193030 | 36 | 49 | 4.8 | 17.7 | 0.00 | 0.00 | 0.00 | 39 | 1012.1 |
| 20260905192350 | 36 | 344 | 11.3 | 19.3 | 0.00 | 0.00 | 0.00 | 43 | 1012.2 |
| 20260905191710 | 36 | 314 | 11.3 | 17.7 | 0.00 | 0.00 | 0.00 | 43 | 1012.2 |
| 20260905191031 | 36 | 275 | 8.0 | 14.5 | 0.00 | 0.00 | 0.00 | 43 | 1012.4 |
| 20260905190350 | 36 | 291 | 8.0 | 12.9 | 0.00 | 0.00 | 0.00 | 42 | 1012.6 |
| 20260905185710 | 35 | 80 | 6.4 | 12.9 | 0.00 | 0.00 | 0.00 | 42 | 1012.8 |
| 20260905185030 | 36 | 57 | 6.4 | 14.5 | 0.00 | 0.00 | 0.00 | 42 | 1012.7 |
| 20260905184350 | 36 | 83 | 8.0 | 14.5 | 0.00 | 0.00 | 0.00 | 43 | 1012.9 |
| 20260905183923 | 36 | 273 | 6.4 | 14.5 | 0.00 | 0.00 | 0.00 | 44 | 1012.9 |
| 20260905183030 | 35 | 337 | 6.4 | 14.5 | 0.00 | 0.00 | 0.00 | 44 | 1013.0 |
| 20260905182350 | 36 | 45 | 4.8 | 14.5 | 0.00 | 0.00 | 0.00 | 43 | 1013.1 |
| 20260905181710 | 36 | 360 | 4.8 | 14.5 | 0.00 | 0.00 | 0.00 | 44 | 1013.2 |
| 20260905181030 | 35 | 336 | 9.7 | 17.7 | 0.00 | 0.00 | 0.00 | 46 | 1013.2 |
| 20260905180350 | 35 | 333 | 8.0 | 17.7 | 0.00 | 0.00 | 0.00 | 47 | 1013.2 |
| 20260905175710 | 36 | 13 | 6.4 | 14.5 | 0.00 | 0.00 | 0.00 | 46 | 1013.4 |
| 20260905175030 | 35 | 228 | 6.4 | 16.1 | 0.00 | 0.00 | 0.00 | 48 | 1013.4 |
| 20260905174351 | 35 | 345 | 8.0 | 16.1 | 0.00 | 0.00 | 0.00 | 47 | 1013.4 |
| 20260905173710 | 35 | 182 | 3.2 | 16.1 | 0.00 | 0.00 | 0.00 | 48 | 1013.5 |
| 20260905173030 | 34 | 35 | 8.0 | 17.7 | 0.00 | 0.00 | 0.00 | 50 | 1013.6 |
| 20260905172605 | 33 | 293 | 8.0 | 17.7 | 0.00 | 0.00 | 0.00 | 51 | 1013.7 |
| 20260905171920 | 34 | 318 | 8.0 | 16.1 | 0.00 | 0.00 | 0.00 | 50 | 1013.8 |
| 20260905171030 | 34 | 310 | 3.2 | 16.1 | 0.00 | 0.00 | 0.00 | 51 | 1013.8 |
| 20260905170350 | 34 | 300 | 6.4 | 22.5 | 0.00 | 0.00 | 0.00 | 50 | 1013.8 |
| 20260905165710 | 33 | 328 | 9.7 | 22.5 | 0.00 | 0.00 | 0.00 | 53 | 1013.7 |
| 20260905165243 | 34 | 326 | 6.4 | 12.9 | 0.00 | 0.00 | 0.00 | 51 | 1014.0 |
| 20260905164351 | 34 | 358 | 8.0 | 12.9 | 0.00 | 0.00 | 0.00 | 52 | 1014.1 |
| 20260905163710 | 34 | 308 | 4.8 | 16.1 | 0.00 | 0.00 | 0.00 | 54 | 1014.3 |
| 20260905163030 | 33 | 79 | 4.8 | 14.5 | 0.00 | 0.00 | 0.00 | 54 | 1014.4 |
| 20260905162600 | 33 | 353 | 9.7 | 14.5 | 0.00 | 0.00 | 0.00 | 55 | 1014.4 |
| 20260905161921 | 33 | 288 | 4.8 | 12.9 | 0.00 | 0.00 | 0.00 | 55 | 1014.5 |
| 20260905161030 | 33 | 17 | 8.0 | 12.9 | 0.00 | 0.00 | 0.00 | 55 | 1014.6 |
| 20260905160351 | 34 | 300 | 4.8 | 9.7 | 0.00 | 0.00 | 0.00 | 55 | 1014.7 |
| 20260905155712 | 33 | 48 | 6.4 | 9.7 | 0.00 | 0.00 | 0.00 | 57 | 1014.7 |
| 20260905155030 | 33 | 59 | 4.8 | 12.9 | 0.00 | 0.00 | 0.00 | 55 | 1014.9 |
| 20260905154351 | 32 | 339 | 3.2 | 12.9 | 0.00 | 0.00 | 0.00 | 59 | 1014.8 |
| 20260905153711 | 32 | 314 | 4.8 | 12.9 | 0.00 | 0.00 | 0.00 | 59 | 1014.8 |
| 20260905153240 | 32 | 327 | 1.6 | 9.7 | 0.00 | 0.00 | 0.00 | 62 | 1014.8 |
| 20260905152601 | 31 | 298 | 3.2 | 9.7 | 0.00 | 0.00 | 0.00 | 64 | 1014.9 |
| 20260905151710 | 31 | 245 | 4.8 | 9.7 | 0.00 | 0.00 | 0.00 | 65 | 1015.0 |
| 20260905151242 | 32 | 301 | 3.2 | 8.0 | 0.00 | 0.00 | 0.00 | 62 | 1014.9 |
| 20260905150350 | 31 | 329 | 3.2 | 8.0 | 0.00 | 0.00 | 0.00 | 65 | 1014.9 |
| 20260905145710 | 31 | 287 | 3.2 | 6.4 | 0.00 | 0.00 | 0.00 | 65 | 1014.8 |
| 20260905145244 | 31 | 50 | 1.6 | 8.0 | 0.00 | 0.00 | 0.00 | 68 | 1014.8 |
| 20260905144350 | 31 | 326 | 4.8 | 8.0 | 0.00 | 0.00 | 0.00 | 66 | 1014.9 |
| 20260905143710 | 31 | 89 | 1.6 | 6.4 | 0.00 | 0.00 | 0.00 | 68 | 1014.8 |
| 20260905143031 | 30 | 240 | 1.6 | 8.0 | 0.00 | 0.00 | 0.00 | 72 | 1015.0 |
| 20260905142350 | 30 | 235 | 3.2 | 8.0 | 0.00 | 0.00 | 0.00 | 70 | 1015.0 |
| 20260905141711 | 30 | 177 | 3.2 | 6.4 | 0.00 | 0.00 | 0.00 | 72 | 1015.1 |